RAJ401 WIPP-WIHH

Flight info

Callsign RAJ401
Flight time 1h 2m
Altitude 30000
Route BORAS W12E DKI
Aircraft A400/M-SDFGHIRWY/EB2

Departure

Time 2026-05-01 14:14
Airport Sultan Mahmud Badaruddin II Airport (WIPP)

Arrival

Time 2026-05-01 15:16
Airport Halim Perdanakusuma International Airport (WIHH)
Time Latitude Longitude Altitude Speed Heading
2026-05-01 13:55 -2.89606 104.70438 60 ft 0 kts 24°
2026-05-01 14:04 -2.89609 104.70437 60 ft 2 kts 24°
2026-05-01 14:04 -2.89620 104.70432 52 ft 3 kts 25°
2026-05-01 14:05 -2.89644 104.70421 52 ft 3 kts 26°
2026-05-01 14:05 -2.89661 104.70413 53 ft 2 kts 25°
2026-05-01 14:05 -2.89676 104.70404 53 ft 3 kts 53°
2026-05-01 14:05 -2.89683 104.70388 53 ft 3 kts 96°
2026-05-01 14:06 -2.89679 104.70372 54 ft 1 kts 112°
2026-05-01 14:06 -2.89677 104.70367 56 ft 0 kts 112°
2026-05-01 14:08 -2.89683 104.70382 57 ft 6 kts 111°
2026-05-01 14:09 -2.89707 104.70441 57 ft 12 kts 113°
2026-05-01 14:09 -2.89746 104.70532 58 ft 16 kts 113°
2026-05-01 14:09 -2.89785 104.70623 53 ft 15 kts 112°
2026-05-01 14:09 -2.89803 104.70686 55 ft 2 kts 51°
2026-05-01 14:10 -2.89796 104.70684 54 ft 1 kts 355°
2026-05-01 14:10 -2.89793 104.70680 53 ft 1 kts 315°
2026-05-01 14:10 -2.89793 104.70666 56 ft 6 kts 275°
2026-05-01 14:10 -2.89779 104.70583 58 ft 15 kts 257°
2026-05-01 14:11 -2.89873 104.70547 54 ft 16 kts 155°
2026-05-01 14:11 -2.89983 104.70773 55 ft 21 kts 115°
2026-05-01 14:11 -2.90040 104.70908 58 ft 21 kts 113°
2026-05-01 14:12 -2.90103 104.71031 57 ft 19 kts 135°
2026-05-01 14:12 -2.90208 104.71034 57 ft 14 kts 217°
2026-05-01 14:12 -2.90244 104.70974 58 ft 10 kts 278°
2026-05-01 14:12 -2.90236 104.70952 58 ft 2 kts 292°
2026-05-01 14:13 -2.90193 104.70848 58 ft 51 kts 292°
2026-05-01 14:13 -2.90054 104.70514 57 ft 106 kts 293°
2026-05-01 14:13 -2.89519 104.69276 85 ft 185 kts 294°
2026-05-01 14:13 -2.88986 104.68039 521 ft 199 kts 292°
2026-05-01 14:14 -2.88463 104.66716 1093 ft 207 kts 291°
2026-05-01 14:14 -2.87959 104.65341 1762 ft 216 kts 294°
2026-05-01 14:14 -2.87082 104.64087 2432 ft 227 kts 321°
2026-05-01 14:14 -2.85634 104.63453 3157 ft 235 kts 358°
2026-05-01 14:15 -2.84109 104.63924 3878 ft 241 kts 42°
2026-05-01 14:15 -2.83183 104.65328 4521 ft 250 kts 69°
2026-05-01 14:15 -2.82656 104.67053 5002 ft 266 kts 76°
2026-05-01 14:15 -2.82212 104.68882 5650 ft 272 kts 77°
2026-05-01 14:16 -2.81766 104.70738 6355 ft 276 kts 77°
2026-05-01 14:16 -2.81308 104.72589 7035 ft 278 kts 77°
2026-05-01 14:16 -2.80830 104.74479 7717 ft 281 kts 77°
2026-05-01 14:16 -2.80341 104.76389 8409 ft 284 kts 77°
2026-05-01 14:17 -2.79843 104.78317 9113 ft 287 kts 76°
2026-05-01 14:17 -2.79510 104.79605 9587 ft 289 kts 77°
2026-05-01 14:17 -2.78831 104.82221 10322 ft 298 kts 76°
2026-05-01 14:17 -2.78314 104.84263 10770 ft 306 kts 79°
2026-05-01 14:18 -2.78245 104.86404 11284 ft 309 kts 102°
2026-05-01 14:18 -2.78629 104.87777 11659 ft 311 kts 109°
2026-05-01 14:18 -2.79415 104.89801 12220 ft 314 kts 112°
2026-05-01 14:18 -2.80263 104.91827 12800 ft 316 kts 113°
2026-05-01 14:19 -2.81397 104.94541 13587 ft 320 kts 112°
2026-05-01 14:19 -2.81964 104.95910 13931 ft 322 kts 112°
2026-05-01 14:19 -2.82826 104.98002 14444 ft 324 kts 112°
2026-05-01 14:19 -2.83687 105.00104 14960 ft 327 kts 112°
2026-05-01 14:20 -2.84551 105.02219 15482 ft 330 kts 112°
2026-05-01 14:20 -2.86577 105.06327 16514 ft 335 kts 128°
2026-05-01 14:20 -2.88341 105.07868 17029 ft 340 kts 149°
2026-05-01 14:21 -2.90528 105.08835 17543 ft 345 kts 159°
2026-05-01 14:21 -2.92791 105.09605 18065 ft 348 kts 160°
2026-05-01 14:21 -2.95113 105.10362 18509 ft 351 kts 160°
2026-05-01 14:22 -2.99804 105.11911 18869 ft 356 kts 160°
2026-05-01 14:22 -3.02134 105.12690 18886 ft 355 kts 160°
2026-05-01 14:22 -3.04486 105.13481 18888 ft 355 kts 160°
2026-05-01 14:22 -3.06808 105.14263 18881 ft 355 kts 160°
2026-05-01 14:23 -3.09153 105.15054 18879 ft 355 kts 160°
2026-05-01 14:23 -3.11501 105.15847 18886 ft 355 kts 160°
2026-05-01 14:23 -3.13849 105.16641 18884 ft 355 kts 160°
2026-05-01 14:23 -3.16160 105.17421 18890 ft 355 kts 160°
2026-05-01 14:24 -3.18503 105.18213 18887 ft 355 kts 160°
2026-05-01 14:24 -3.20848 105.19006 18893 ft 354 kts 160°
2026-05-01 14:24 -3.23194 105.19799 18882 ft 354 kts 160°
2026-05-01 14:24 -3.25534 105.20590 18894 ft 354 kts 160°
2026-05-01 14:25 -3.27840 105.21370 18884 ft 354 kts 160°
2026-05-01 14:25 -3.30179 105.22161 18887 ft 354 kts 160°
2026-05-01 14:25 -3.32527 105.22956 18884 ft 354 kts 160°
2026-05-01 14:25 -3.34837 105.23738 18887 ft 354 kts 160°
2026-05-01 14:26 -3.37118 105.24654 18889 ft 352 kts 150°
2026-05-01 14:26 -3.40715 105.27935 18890 ft 350 kts 129°
2026-05-01 14:26 -3.42261 105.29775 18887 ft 350 kts 129°
2026-05-01 14:27 -3.43823 105.31650 18891 ft 350 kts 129°
2026-05-01 14:27 -3.45392 105.33527 18891 ft 350 kts 129°
2026-05-01 14:27 -3.46961 105.35398 18889 ft 350 kts 129°
2026-05-01 14:28 -3.50059 105.39077 18897 ft 350 kts 129°
2026-05-01 14:28 -3.51634 105.40944 18896 ft 350 kts 129°
2026-05-01 14:28 -3.53212 105.42814 18895 ft 350 kts 129°
2026-05-01 14:28 -3.54770 105.44661 18898 ft 350 kts 129°
2026-05-01 14:29 -3.56349 105.46532 18900 ft 350 kts 129°
2026-05-01 14:29 -3.57922 105.48395 18903 ft 350 kts 129°
2026-05-01 14:30 -3.62632 105.53977 18903 ft 350 kts 129°
2026-05-01 14:30 -3.64215 105.55853 18896 ft 350 kts 129°
2026-05-01 14:30 -3.65772 105.57698 18905 ft 350 kts 129°
2026-05-01 14:31 -3.68926 105.61437 18896 ft 350 kts 129°
2026-05-01 14:31 -3.70500 105.63304 18906 ft 350 kts 129°
2026-05-01 14:31 -3.72057 105.65150 18908 ft 351 kts 129°
2026-05-01 14:31 -3.73640 105.67027 18901 ft 351 kts 129°
2026-05-01 14:32 -3.75212 105.68892 18902 ft 351 kts 129°
2026-05-01 14:32 -3.76769 105.70738 18902 ft 351 kts 129°
2026-05-01 14:32 -3.78344 105.72606 18904 ft 351 kts 129°
2026-05-01 14:32 -3.79927 105.74483 18905 ft 351 kts 129°
2026-05-01 14:33 -3.81512 105.76364 18909 ft 351 kts 129°
2026-05-01 14:33 -3.83072 105.78215 18907 ft 351 kts 129°
2026-05-01 14:33 -3.84646 105.80082 18913 ft 351 kts 129°
2026-05-01 14:33 -3.86229 105.81959 18909 ft 351 kts 129°
2026-05-01 14:34 -3.87791 105.83813 18907 ft 351 kts 129°
2026-05-01 14:34 -3.89371 105.85688 18906 ft 351 kts 129°
2026-05-01 14:34 -3.90951 105.87563 18907 ft 351 kts 129°
2026-05-01 14:34 -3.92531 105.89438 18910 ft 351 kts 129°
2026-05-01 14:35 -3.94094 105.91293 18907 ft 351 kts 129°
2026-05-01 14:35 -3.95675 105.93169 18920 ft 351 kts 129°
2026-05-01 14:35 -3.97236 105.95022 18923 ft 351 kts 129°
2026-05-01 14:35 -3.98835 105.96920 18919 ft 352 kts 129°
2026-05-01 14:36 -4.00411 105.98791 18921 ft 352 kts 129°
2026-05-01 14:36 -4.01970 106.00642 18914 ft 352 kts 129°
2026-05-01 14:36 -4.03542 106.02530 18912 ft 351 kts 126°
2026-05-01 14:36 -4.04911 106.04561 18924 ft 351 kts 120°
2026-05-01 14:37 -4.06142 106.06643 18923 ft 350 kts 119°
2026-05-01 14:37 -4.07360 106.08757 18911 ft 350 kts 119°
2026-05-01 14:37 -4.08582 106.10885 18922 ft 350 kts 119°
2026-05-01 14:37 -4.09797 106.12996 18909 ft 350 kts 119°
2026-05-01 14:38 -4.11026 106.15127 18910 ft 350 kts 119°
2026-05-01 14:38 -4.12235 106.17222 18920 ft 350 kts 119°
2026-05-01 14:38 -4.13458 106.19340 18914 ft 351 kts 119°
2026-05-01 14:38 -4.14685 106.21463 18925 ft 350 kts 119°
2026-05-01 14:39 -4.15895 106.23557 18916 ft 351 kts 119°
2026-05-01 14:39 -4.17095 106.25634 18909 ft 351 kts 119°
2026-05-01 14:39 -4.18319 106.27751 18916 ft 350 kts 119°
2026-05-01 14:39 -4.19545 106.29875 18924 ft 351 kts 119°
2026-05-01 14:40 -4.20729 106.31924 18926 ft 351 kts 119°
2026-05-01 14:40 -4.21961 106.34055 18917 ft 351 kts 119°
2026-05-01 14:40 -4.23185 106.36174 18914 ft 351 kts 119°
2026-05-01 14:40 -4.24399 106.38276 18916 ft 351 kts 119°
2026-05-01 14:41 -4.25610 106.40373 18911 ft 351 kts 119°
2026-05-01 14:41 -4.26839 106.42500 18924 ft 351 kts 119°
2026-05-01 14:41 -4.28062 106.44618 18915 ft 351 kts 119°
2026-05-01 14:41 -4.29275 106.46720 18909 ft 351 kts 119°
2026-05-01 14:42 -4.30502 106.48845 18914 ft 351 kts 119°
2026-05-01 14:42 -4.31729 106.50970 18912 ft 351 kts 119°
2026-05-01 14:42 -4.32941 106.53069 18926 ft 351 kts 119°
2026-05-01 14:42 -4.34170 106.55199 18916 ft 351 kts 119°
2026-05-01 14:43 -4.35394 106.57319 18913 ft 351 kts 119°
2026-05-01 14:43 -4.36609 106.59423 18925 ft 351 kts 119°
2026-05-01 14:43 -4.37832 106.61543 18923 ft 351 kts 119°
2026-05-01 14:43 -4.39060 106.63671 18911 ft 351 kts 119°
2026-05-01 14:44 -4.40271 106.65770 18913 ft 351 kts 119°
2026-05-01 14:44 -4.42726 106.70024 18911 ft 351 kts 119°
2026-05-01 14:44 -4.43935 106.72120 18923 ft 351 kts 119°
2026-05-01 14:45 -4.45163 106.74250 18913 ft 351 kts 119°
2026-05-01 14:45 -4.47594 106.78465 18911 ft 351 kts 119°
2026-05-01 14:45 -4.48824 106.80597 18920 ft 351 kts 119°
2026-05-01 14:46 -4.50049 106.82721 18910 ft 351 kts 119°
2026-05-01 14:46 -4.52485 106.86946 18905 ft 351 kts 119°
2026-05-01 14:46 -4.53708 106.89067 18922 ft 351 kts 119°
2026-05-01 14:47 -4.54937 106.91200 18921 ft 351 kts 119°
2026-05-01 14:47 -4.56150 106.93304 18911 ft 352 kts 119°
2026-05-01 14:47 -4.57377 106.95432 18921 ft 351 kts 119°
2026-05-01 14:48 -4.59821 106.99674 18921 ft 351 kts 119°
2026-05-01 14:48 -4.61048 107.01803 18914 ft 351 kts 119°
2026-05-01 14:48 -4.64042 107.05621 18917 ft 353 kts 144°
2026-05-01 14:49 -4.68664 107.07266 18908 ft 357 kts 166°
2026-05-01 14:49 -4.73566 107.08260 18917 ft 358 kts 167°
2026-05-01 14:50 -4.76809 107.08922 18917 ft 358 kts 167°
2026-05-01 14:50 -4.82458 107.10096 18918 ft 359 kts 167°
2026-05-01 14:51 -4.83926 107.10403 18904 ft 359 kts 167°
2026-05-01 14:51 -4.88829 107.11432 18917 ft 359 kts 167°
2026-05-01 14:52 -4.93696 107.12455 18909 ft 359 kts 167°
2026-05-01 14:52 -4.96138 107.12968 18917 ft 359 kts 167°
2026-05-01 14:52 -5.01030 107.13997 18916 ft 358 kts 167°
2026-05-01 14:53 -5.03474 107.14512 18915 ft 359 kts 167°
2026-05-01 14:53 -5.05921 107.15027 18913 ft 359 kts 167°
2026-05-01 14:53 -5.08351 107.15538 18917 ft 359 kts 167°
2026-05-01 14:53 -5.10793 107.16052 18913 ft 359 kts 167°
2026-05-01 14:54 -5.13241 107.16567 18906 ft 359 kts 167°
2026-05-01 14:54 -5.15683 107.17081 18914 ft 359 kts 167°
2026-05-01 14:54 -5.18101 107.17590 18915 ft 359 kts 167°
2026-05-01 14:54 -5.20543 107.18104 18917 ft 359 kts 167°
2026-05-01 14:55 -5.22998 107.18621 18917 ft 359 kts 167°
2026-05-01 14:55 -5.25444 107.19136 18916 ft 359 kts 167°
2026-05-01 14:55 -5.27897 107.19653 18915 ft 359 kts 167°
2026-05-01 14:55 -5.30318 107.20163 18914 ft 359 kts 167°
2026-05-01 14:56 -5.32761 107.20678 18913 ft 359 kts 166°
2026-05-01 14:56 -5.35156 107.21402 18913 ft 356 kts 154°
2026-05-01 14:56 -5.37288 107.22647 18915 ft 355 kts 144°
2026-05-01 14:56 -5.39313 107.24072 18914 ft 355 kts 143°
2026-05-01 14:57 -5.41316 107.25526 18918 ft 355 kts 143°
2026-05-01 14:57 -5.45311 107.28422 18919 ft 355 kts 143°
2026-05-01 14:57 -5.47320 107.29871 18919 ft 355 kts 143°
2026-05-01 14:58 -5.49336 107.31322 18792 ft 356 kts 143°
2026-05-01 14:58 -5.51348 107.32770 18566 ft 354 kts 143°
2026-05-01 14:58 -5.53328 107.34193 18349 ft 353 kts 143°
2026-05-01 14:58 -5.55326 107.35629 18116 ft 352 kts 143°
2026-05-01 14:59 -5.57314 107.37057 17858 ft 350 kts 143°
2026-05-01 14:59 -5.59298 107.38483 17606 ft 349 kts 143°
2026-05-01 14:59 -5.61268 107.39899 17353 ft 347 kts 143°
2026-05-01 14:59 -5.63236 107.41313 17104 ft 346 kts 143°
2026-05-01 15:00 -5.67110 107.44097 16612 ft 343 kts 143°
2026-05-01 15:00 -5.69049 107.45491 16374 ft 341 kts 143°
2026-05-01 15:00 -5.70984 107.46883 16015 ft 340 kts 143°
2026-05-01 15:01 -5.72905 107.48264 15559 ft 337 kts 143°
2026-05-01 15:01 -5.74784 107.49614 15121 ft 334 kts 143°
2026-05-01 15:01 -5.76676 107.50975 14693 ft 332 kts 143°
2026-05-01 15:01 -5.78557 107.52328 14228 ft 329 kts 143°
2026-05-01 15:02 -5.80388 107.53645 13813 ft 327 kts 143°
2026-05-01 15:02 -5.81013 107.54094 13653 ft 326 kts 143°
2026-05-01 15:02 -5.84063 107.56288 12888 ft 322 kts 143°
2026-05-01 15:02 -5.85882 107.57597 12464 ft 319 kts 143°
2026-05-01 15:03 -5.87076 107.58456 12181 ft 318 kts 143°
2026-05-01 15:03 -5.88871 107.59748 11748 ft 316 kts 143°
2026-05-01 15:03 -5.90654 107.61031 11319 ft 314 kts 143°
2026-05-01 15:03 -5.93155 107.62455 10818 ft 311 kts 161°
2026-05-01 15:04 -5.95299 107.62722 10592 ft 313 kts 184°
2026-05-01 15:04 -5.96715 107.62399 10440 ft 314 kts 200°
2026-05-01 15:04 -5.98532 107.61201 10221 ft 311 kts 225°
2026-05-01 15:04 -5.99835 107.59535 10068 ft 304 kts 234°
2026-05-01 15:05 -6.00996 107.57758 9976 ft 303 kts 236°
2026-05-01 15:05 -6.02137 107.55970 9900 ft 302 kts 236°
2026-05-01 15:05 -6.03275 107.54197 9836 ft 302 kts 236°
2026-05-01 15:05 -6.04406 107.52448 9761 ft 301 kts 236°
2026-05-01 15:06 -6.05564 107.50666 9696 ft 301 kts 235°
2026-05-01 15:06 -6.06698 107.48925 9614 ft 300 kts 235°
2026-05-01 15:06 -6.07843 107.47170 9526 ft 299 kts 235°
2026-05-01 15:06 -6.08976 107.45433 9059 ft 297 kts 235°
2026-05-01 15:07 -6.10119 107.43680 8540 ft 299 kts 235°
2026-05-01 15:07 -6.11244 107.41954 8101 ft 297 kts 235°
2026-05-01 15:07 -6.12377 107.40217 7670 ft 295 kts 235°
2026-05-01 15:07 -6.13499 107.38497 7274 ft 292 kts 235°
2026-05-01 15:08 -6.14595 107.36816 6925 ft 288 kts 235°
2026-05-01 15:08 -6.15690 107.35136 6685 ft 286 kts 235°
2026-05-01 15:08 -6.16781 107.33463 6459 ft 285 kts 235°
2026-05-01 15:08 -6.17870 107.31794 6238 ft 284 kts 235°
2026-05-01 15:09 -6.18925 107.30122 6043 ft 283 kts 240°
2026-05-01 15:09 -6.19567 107.28246 5701 ft 287 kts 261°
2026-05-01 15:09 -6.19685 107.26279 5415 ft 274 kts 268°
2026-05-01 15:09 -6.19684 107.24405 5051 ft 268 kts 269°
2026-05-01 15:10 -6.19670 107.22546 4644 ft 264 kts 269°
2026-05-01 15:10 -6.19659 107.18887 3791 ft 258 kts 269°
2026-05-01 15:10 -6.19660 107.17090 3444 ft 255 kts 269°
2026-05-01 15:11 -6.19663 107.15320 3162 ft 251 kts 269°
2026-05-01 15:11 -6.19671 107.11884 2773 ft 239 kts 270°
2026-05-01 15:11 -6.19676 107.10241 2555 ft 236 kts 270°
2026-05-01 15:12 -6.19681 107.08595 2499 ft 235 kts 270°
2026-05-01 15:12 -6.19694 107.05438 2480 ft 203 kts 268°
2026-05-01 15:12 -6.19867 107.04096 2422 ft 189 kts 254°
2026-05-01 15:13 -6.21277 107.00868 1996 ft 156 kts 245°
2026-05-01 15:14 -6.22176 106.98895 1895 ft 156 kts 245°
2026-05-01 15:14 -6.22625 106.97911 1693 ft 154 kts 245°
2026-05-01 15:14 -6.23519 106.95963 1281 ft 153 kts 245°
2026-05-01 15:15 -6.24403 106.94032 911 ft 151 kts 245°
2026-05-01 15:15 -6.25278 106.92131 537 ft 150 kts 244°
2026-05-01 15:16 -6.26133 106.90264 166 ft 139 kts 246°
2026-05-01 15:16 -6.26603 106.89232 105 ft 31 kts 244°
2026-05-01 15:17 -6.26737 106.88915 104 ft 21 kts 272°
2026-05-01 15:18 -6.26621 106.88815 102 ft 3 kts 336°
2026-05-01 15:18 -6.26607 106.88802 103 ft 3 kts 320°
2026-05-01 15:19 -6.26541 106.88772 103 ft 0 kts 334°